Montpelier, VT

10:16 AM EST on February 21, 2017 (GMT -0500)
Knapp State

Weather History for KMPV - October, 2014

Change the Weather History Date:

Tuesday, October 14, 2014

  Actual Average Record
Temperature  
Mean Temperature 65 °F 46 °F  
Max Temperature 76 °F 57 °F 76 °F (1954)
Min Temperature 53 °F 36 °F 17 °F (1958)
Degree Days  
Heating Degree Days 0 19  
Month to date heating degree days 195 231  
Since 1 July heating degree days 579 586  
Cooling Degree Days 0 0  
Month to date cooling degree days 0 0  
Year to date cooling degree days 186 263  
Growing Degree Days 14 (Base 50)    
Moisture  
Dew Point 55 °F    
Average Humidity 73    
Maximum Humidity 93    
Minimum Humidity 53    
Precipitation  
Precipitation 0.00 in 0.12 in 1.17 in (2011)
Month to date precipitation 1.47 1.65  
Year to date precipitation 28.11 29.57  
Sea Level Pressure  
Sea Level Pressure 30.16 in    
Wind  
Wind Speed 10 mph (South)    
Max Wind Speed 20 mph    
Max Gust Speed 30 mph    
Visibility 10 miles    
Events      
T = Trace of Precipitation, MM = Missing Value Source: NWS Daily Summary

Daily Weather History Graph

Daily Weather History Graph

Search for Another Location

Airport or City:

Trip Planner

Search our weather history database for the weather conditions in past years. The results will help you decide how hot, cold, wet, or windy it might be!

Date:

Astronomy

Oct. 14, 2014 Rise Set
Actual Time 7:03 AM EDT 6:07 PM EDT
Civil Twilight 6:34 AM EDT 6:37 PM EDT
Nautical Twilight 6:01 AM EDT 7:10 PM EDT
Astronomical Twilight 5:27 AM EDT 7:44 PM EDT
Moon 11:04 PM EDT (10/14) 1:08 PM EDT (10/14)
Length of Visible Light 12h 02m
Length of Day
11h 04m
Waning Gibbous, 61% of the Moon is Illuminated
Oct 14
Waning Gibbous
Oct 15
Last Quarter
Oct 23
New
Oct 30
First Quarter
Nov 6
Full

Hourly Weather History & Observations

Time (EDT) Temp. Dew Point Humidity Pressure Visibility Wind Dir Wind Speed Gust Speed Precip Events Conditions
12:51 AM 53.1 °F 48.0 °F 83% 30.24 in 10.0 mi South 9.2 mph - N/A   Overcast
1:51 AM 54.0 °F 48.0 °F 80% 30.24 in 10.0 mi SSE 8.1 mph - N/A   Overcast
2:51 AM 54.0 °F 50.0 °F 86% 30.21 in 10.0 mi SSE 8.1 mph - N/A   Overcast
3:51 AM 54.0 °F 50.0 °F 86% 30.20 in 10.0 mi South 12.7 mph - N/A   Mostly Cloudy
4:51 AM 55.0 °F 51.1 °F 86% 30.22 in 10.0 mi SSE 6.9 mph - N/A   Overcast
5:51 AM 55.9 °F 52.0 °F 87% 30.21 in 10.0 mi Calm Calm - N/A   Overcast
6:51 AM 55.9 °F 52.0 °F 87% 30.21 in 10.0 mi South 9.2 mph - N/A   Overcast
7:51 AM 55.9 °F 53.1 °F 90% 30.22 in 10.0 mi South 10.4 mph - N/A   Overcast
8:03 AM 57.0 °F 53.1 °F 87% 30.21 in 10.0 mi South 4.6 mph - N/A   Mostly Cloudy
8:51 AM 60.1 °F 54.0 °F 80% 30.22 in 10.0 mi SSE 9.2 mph - N/A   Overcast
9:51 AM 63.0 °F 55.0 °F 75% 30.22 in 10.0 mi South 10.4 mph - N/A   Partly Cloudy
10:51 AM 66.2 °F 57.2 °F 73% 30.19 in 10.0 mi South 11.5 mph - N/A   Clear
11:51 AM 69.1 °F 57.9 °F 68% 30.18 in 10.0 mi SSE 13.8 mph - N/A   Clear
12:51 PM 73.0 °F 57.9 °F 59% 30.15 in 10.0 mi South 12.7 mph 20.7 mph N/A   Scattered Clouds
1:19 PM 73.0 °F 57.9 °F 59% 30.14 in 1.0 mi South 16.1 mph 21.9 mph N/A   Haze
1:29 PM 73.0 °F 57.9 °F 59% 30.14 in 5.0 mi South 11.5 mph - N/A   Haze
1:51 PM 73.9 °F 57.0 °F 55% 30.12 in 10.0 mi SSW 13.8 mph 21.9 mph N/A   Clear
2:51 PM 75.0 °F 57.9 °F 55% 30.11 in 10.0 mi South 17.3 mph 23.0 mph N/A   Partly Cloudy
3:51 PM 73.9 °F 57.0 °F 55% 30.11 in 10.0 mi SSW 10.4 mph 29.9 mph N/A   Mostly Cloudy
4:51 PM 73.9 °F 55.9 °F 53% 30.10 in 10.0 mi SSW 10.4 mph 23.0 mph N/A   Partly Cloudy
5:51 PM 71.1 °F 55.9 °F 59% 30.11 in 10.0 mi South 12.7 mph 21.9 mph N/A   Clear
6:51 PM 69.1 °F 55.9 °F 63% 30.12 in 10.0 mi South 10.4 mph - N/A   Clear
7:51 PM 66.9 °F 57.0 °F 70% 30.12 in 10.0 mi SSE 8.1 mph - N/A   Clear
8:51 PM 64.9 °F 59.0 °F 81% 30.13 in 10.0 mi South 10.4 mph - N/A   Clear
9:51 PM 64.0 °F 59.0 °F 84% 30.11 in 10.0 mi South 11.5 mph 19.6 mph N/A   Clear
10:51 PM 64.4 °F 57.2 °F 77% 30.11 in 10.0 mi South 10.4 mph - N/A   Overcast
11:51 PM 63.0 °F 57.9 °F 84% 30.10 in 10.0 mi SSE 6.9 mph - N/A   Overcast